Location: Home
(42.5358°N, 72.7383°W)
Time: 10:50:47
(UTC-05:00)

A-11 Canister half - Visible Passes

Search period start: 02 December 2023 00:00
Search period end: 12 December 2023 00:00
Orbit: 1514 x 1685 km, 47.2° (Epoch: 01 December)

Date Brightness Start Highest point End Pass type
(mag) Time Alt. Az. Time Alt. Az. Time Alt. Az.
02 Dec 10.2 02:12:22 34° ENE 02:12:22 34° ENE 02:17:17 10° ENE visible
02 Dec 9.1 04:10:33 54° NW 04:12:59 68° N 04:23:08 10° E visible
02 Dec 9.2 06:08:45 11° WNW 06:18:33 81° SSW 06:28:44 10° ESE visible
03 Dec 10.6 01:50:42 26° ENE 01:50:42 26° ENE 01:54:14 10° ENE visible
03 Dec 9.1 03:48:54 65° NNW 03:49:56 68° N 04:00:04 10° E visible
03 Dec 9.2 05:47:06 17° WNW 05:55:33 84° SSW 06:05:46 10° ESE visible
04 Dec 10.9 01:29:03 19° ENE 01:29:03 19° ENE 01:31:12 10° ENE visible
04 Dec 9.1 03:27:15 67° NNE 03:27:15 67° NNE 03:37:00 10° E visible
04 Dec 9.1 05:25:27 23° WNW 05:32:33 87° SSW 05:42:46 10° ESE visible
05 Dec 11.2 01:07:24 13° ENE 01:07:24 13° ENE 01:08:11 10° ENE visible
05 Dec 9.4 03:05:36 59° NE 03:05:36 59° NE 03:13:56 10° E visible
05 Dec 9.1 05:03:48 31° WNW 05:09:32 89° SSW 05:19:46 10° ESE visible
06 Dec 9.7 02:43:59 47° ENE 02:43:59 47° ENE 02:50:52 10° E visible
06 Dec 9.1 04:42:11 41° WNW 04:46:31 88° NNE 04:56:45 10° ESE visible
07 Dec 10.1 02:22:23 36° ENE 02:22:23 36° ENE 02:27:48 10° E visible
07 Dec 9.0 04:20:35 54° WNW 04:23:30 86° NNE 04:33:44 10° ESE visible
07 Dec 9.7 06:18:48 10° WNW 06:28:06 44° SW 06:37:30 10° SSE visible
08 Dec 10.5 02:00:48 27° ENE 02:00:48 27° ENE 02:04:44 10° E visible
08 Dec 8.9 03:59:00 69° NW 04:00:29 84° NNE 04:10:42 10° ESE visible
08 Dec 9.6 05:57:13 15° WNW 06:05:10 47° SW 06:14:40 10° SSE visible
09 Dec 10.9 01:39:15 20° ENE 01:39:15 20° ENE 01:41:41 10° ENE visible
09 Dec 9.0 03:37:28 82° NNE 03:37:29 82° NNE 03:47:40 10° ESE visible
09 Dec 9.5 05:35:40 22° WNW 05:42:13 49° SW 05:51:49 10° SSE visible
10 Dec 11.2 01:17:44 13° ENE 01:17:44 13° ENE 01:18:37 10° ENE visible
10 Dec 9.2 03:15:56 68° E 03:15:56 68° E 03:24:38 10° ESE visible
10 Dec 9.4 05:14:09 29° W 05:19:16 52° SW 05:28:58 10° SSE visible
11 Dec 9.6 02:54:29 51° E 02:54:29 51° E 03:01:35 10° ESE visible
11 Dec 9.3 04:52:41 39° W 04:56:19 55° SW 05:06:06 10° SE visible
